Time,TemperatureF,DewpointF,PressureIn,WindDirection,WindDirectionDegrees,WindSpeedMPH,WindSpeedGustMPH,Humidity,HourlyPrecipIn,Conditions,Clouds,dailyrainin,SoftwareType,DateUTC
2013-02-21 00:00:00,21.0,15.8,30.33,North,32767,-999.0,0.0,80,0.00,,,0.00,Wunderground v.1.15,2013-02-21 05:00:00,
2013-02-21 00:05:00,21.0,15.8,30.33,North,32767,-999.0,0.0,80,0.00,,,0.00,Wunderground v.1.15,2013-02-21 05:05:00,
2013-02-21 00:10:00,20.9,15.7,30.33,North,32767,-999.0,0.0,80,0.00,,,0.00,Wunderground v.1.15,2013-02-21 05:10:00,
2013-02-21 00:20:00,20.9,15.7,30.33,North,32767,-999.0,0.0,80,0.00,,,0.00,Wunderground v.1.15,2013-02-21 05:20:00,
2013-02-21 00:25:00,20.9,16.0,30.33,North,32767,-999.0,0.0,81,0.00,,,0.00,Wunderground v.1.15,2013-02-21 05:25:00,
2013-02-21 00:30:00,20.8,15.9,30.33,North,32767,-999.0,0.0,81,0.00,,,0.00,Wunderground v.1.15,2013-02-21 05:30:00,
2013-02-21 00:35:00,20.9,16.0,30.33,North,32767,-999.0,0.0,81,0.00,,,0.00,Wunderground v.1.15,2013-02-21 05:35:00,
2013-02-21 00:45:00,20.8,16.2,30.33,North,32767,-999.0,0.0,82,0.00,,,0.00,Wunderground v.1.15,2013-02-21 05:45:00,
2013-02-21 00:55:00,20.7,16.1,30.33,North,32767,-999.0,0.0,82,0.00,,,0.00,Wunderground v.1.15,2013-02-21 05:55:00,
2013-02-21 01:00:00,20.8,16.2,30.33,North,32767,-999.0,0.0,82,0.00,,,0.00,Wunderground v.1.15,2013-02-21 06:00:00,
2013-02-21 01:10:00,20.8,16.2,30.34,North,32767,-999.0,0.0,82,0.00,,,0.00,Wunderground v.1.15,2013-02-21 06:10:00,
2013-02-21 01:15:00,20.8,16.2,30.34,North,32767,-999.0,0.0,82,0.00,,,0.00,Wunderground v.1.15,2013-02-21 06:15:00,
2013-02-21 01:25:00,20.8,16.2,30.34,North,32767,-999.0,0.0,82,0.00,,,0.00,Wunderground v.1.15,2013-02-21 06:25:00,
2013-02-21 01:35:00,20.8,15.9,30.35,North,32767,-999.0,0.0,81,0.00,,,0.00,Wunderground v.1.15,2013-02-21 06:35:00,
2013-02-21 01:45:00,20.8,15.9,30.35,North,32767,-999.0,0.0,81,0.00,,,0.00,Wunderground v.1.15,2013-02-21 06:45:00,
2013-02-21 01:55:00,20.8,16.2,30.35,North,32767,-999.0,0.0,82,0.00,,,0.00,Wunderground v.1.15,2013-02-21 06:55:00,
2013-02-21 02:05:00,20.7,16.1,30.35,North,32767,-999.0,0.0,82,0.00,,,0.00,Wunderground v.1.15,2013-02-21 07:05:00,
2013-02-21 02:15:00,20.7,16.1,30.35,North,32767,-999.0,0.0,82,0.00,,,0.00,Wunderground v.1.15,2013-02-21 07:15:00,
2013-02-21 02:25:00,20.7,16.1,30.35,North,32767,-999.0,0.0,82,0.00,,,0.00,Wunderground v.1.15,2013-02-21 07:25:00,
2013-02-21 02:30:00,20.7,16.1,30.35,North,32767,-999.0,0.0,82,0.00,,,0.00,Wunderground v.1.15,2013-02-21 07:30:00,
2013-02-21 02:40:00,20.7,16.4,30.35,North,32767,-999.0,0.0,83,0.00,,,0.00,Wunderground v.1.15,2013-02-21 07:40:00,
2013-02-21 02:50:00,20.7,16.4,30.35,North,32767,-999.0,0.0,83,0.00,,,0.00,Wunderground v.1.15,2013-02-21 07:50:00,
2013-02-21 02:55:00,20.7,16.1,30.35,North,32767,-999.0,0.0,82,0.00,,,0.00,Wunderground v.1.15,2013-02-21 07:55:00,
2013-02-21 03:05:00,20.7,16.4,30.35,North,32767,-999.0,0.0,83,0.00,,,0.00,Wunderground v.1.15,2013-02-21 08:05:00,
2013-02-21 03:15:00,20.7,16.4,30.35,North,32767,-999.0,0.0,83,0.00,,,0.00,Wunderground v.1.15,2013-02-21 08:15:00,
2013-02-21 03:20:00,20.8,16.5,30.35,North,32767,-999.0,0.0,83,0.00,,,0.00,Wunderground v.1.15,2013-02-21 08:20:00,
2013-02-21 03:25:00,20.8,16.5,30.35,North,32767,-999.0,0.0,83,0.00,,,0.00,Wunderground v.1.15,2013-02-21 08:25:00,
2013-02-21 03:35:00,20.7,16.4,30.35,North,32767,-999.0,0.0,83,0.00,,,0.00,Wunderground v.1.15,2013-02-21 08:35:00,
2013-02-21 03:45:00,20.8,16.5,30.35,North,32767,-999.0,0.0,83,0.00,,,0.00,Wunderground v.1.15,2013-02-21 08:45:00,
2013-02-21 03:55:00,20.8,16.5,30.35,North,32767,-999.0,0.0,83,0.00,,,0.00,Wunderground v.1.15,2013-02-21 08:55:00,
2013-02-21 04:05:00,20.8,16.5,30.35,North,32767,-999.0,0.0,83,0.00,,,0.00,Wunderground v.1.15,2013-02-21 09:05:00,
2013-02-21 04:15:00,20.9,16.5,30.35,North,32767,-999.0,0.0,83,0.00,,,0.00,Wunderground v.1.15,2013-02-21 09:15:00,
2013-02-21 04:25:00,20.9,16.5,30.35,North,32767,-999.0,0.0,83,0.00,,,0.00,Wunderground v.1.15,2013-02-21 09:25:00,
2013-02-21 04:30:00,20.9,16.5,30.35,North,32767,-999.0,0.0,83,0.00,,,0.00,Wunderground v.1.15,2013-02-21 09:30:00,
2013-02-21 04:35:00,20.9,16.5,30.35,North,32767,-999.0,0.0,83,0.00,,,0.00,Wunderground v.1.15,2013-02-21 09:35:00,
2013-02-21 04:40:00,20.9,16.5,30.35,North,32767,-999.0,0.0,83,0.00,,,0.00,Wunderground v.1.15,2013-02-21 09:40:00,
2013-02-21 04:50:00,20.9,16.5,30.35,North,32767,-999.0,0.0,83,0.00,,,0.00,Wunderground v.1.15,2013-02-21 09:50:00,
2013-02-21 05:00:00,20.9,16.5,30.35,North,32767,-999.0,0.0,83,0.00,,,0.00,Wunderground v.1.15,2013-02-21 10:00:00,
2013-02-21 05:05:00,21.0,16.6,30.35,North,32767,-999.0,0.0,83,0.00,,,0.00,Wunderground v.1.15,2013-02-21 10:05:00,
2013-02-21 05:15:00,21.1,16.7,30.35,North,32767,-999.0,0.0,83,0.00,,,0.00,Wunderground v.1.15,2013-02-21 10:15:00,
2013-02-21 05:25:00,21.1,16.7,30.35,North,32767,-999.0,0.0,83,0.00,,,0.00,Wunderground v.1.15,2013-02-21 10:25:00,
2013-02-21 05:35:00,21.1,16.7,30.35,North,32767,-999.0,0.0,83,0.00,,,0.00,Wunderground v.1.15,2013-02-21 10:35:00,
2013-02-21 05:40:00,21.1,16.7,30.35,North,32767,-999.0,0.0,83,0.00,,,0.00,Wunderground v.1.15,2013-02-21 10:40:00,
2013-02-21 05:50:00,21.2,16.8,30.36,North,32767,-999.0,0.0,83,0.00,,,0.00,Wunderground v.1.15,2013-02-21 10:50:00,
2013-02-21 05:55:00,21.2,16.8,30.36,North,32767,-999.0,0.0,83,0.00,,,0.00,Wunderground v.1.15,2013-02-21 10:55:00,
2013-02-21 06:05:00,21.3,17.2,30.36,North,32767,-999.0,0.0,84,0.00,,,0.00,Wunderground v.1.15,2013-02-21 11:05:00,
2013-02-21 06:15:00,21.4,17.3,30.37,North,32767,-999.0,0.0,84,0.00,,,0.00,Wunderground v.1.15,2013-02-21 11:15:00,
2013-02-21 06:25:00,21.5,17.1,30.37,North,32767,-999.0,0.0,83,0.00,,,0.00,Wunderground v.1.15,2013-02-21 11:25:00,
2013-02-21 06:35:00,21.5,17.4,30.38,North,32767,-999.0,0.0,84,0.00,,,0.00,Wunderground v.1.15,2013-02-21 11:35:00,
2013-02-21 06:45:00,21.6,17.5,30.38,North,32767,-999.0,0.0,84,0.00,,,0.00,Wunderground v.1.15,2013-02-21 11:45:00,
2013-02-21 06:55:00,21.7,17.6,30.39,North,32767,-999.0,0.0,84,0.00,,,0.00,Wunderground v.1.15,2013-02-21 11:55:00,
2013-02-21 07:05:00,21.8,17.7,30.39,North,32767,-999.0,0.0,84,0.00,,,0.00,Wunderground v.1.15,2013-02-21 12:05:00,
2013-02-21 07:15:00,21.8,17.7,30.38,North,32767,-999.0,0.0,84,0.00,,,0.00,Wunderground v.1.15,2013-02-21 12:15:00,
2013-02-21 07:20:00,21.8,17.7,30.37,North,32767,-999.0,0.0,84,0.00,,,0.00,Wunderground v.1.15,2013-02-21 12:20:00,
2013-02-21 07:25:00,21.9,17.8,30.37,North,32767,-999.0,0.0,84,0.00,,,0.00,Wunderground v.1.15,2013-02-21 12:25:00,
2013-02-21 07:35:00,21.9,17.8,30.37,North,32767,-999.0,0.0,84,0.00,,,0.00,Wunderground v.1.15,2013-02-21 12:35:00,
2013-02-21 07:45:00,21.9,17.8,30.36,North,32767,-999.0,0.0,84,0.00,,,0.00,Wunderground v.1.15,2013-02-21 12:45:00,
2013-02-21 07:55:00,22.0,17.6,30.36,North,32767,-999.0,0.0,83,0.00,,,0.00,Wunderground v.1.15,2013-02-21 12:55:00,
2013-02-21 08:05:00,22.0,17.6,30.35,North,32767,-999.0,0.0,83,0.00,,,0.00,Wunderground v.1.15,2013-02-21 13:05:00,
2013-02-21 08:15:00,22.1,18.0,30.34,North,32767,-999.0,0.0,84,0.00,,,0.00,Wunderground v.1.15,2013-02-21 13:15:00,
2013-02-21 08:25:00,22.1,17.7,30.34,North,32767,-999.0,0.0,83,0.00,,,0.00,Wunderground v.1.15,2013-02-21 13:25:00,
2013-02-21 08:30:00,22.0,17.6,30.35,North,32767,-999.0,0.0,83,0.00,,,0.00,Wunderground v.1.15,2013-02-21 13:30:00,
2013-02-21 08:35:00,22.0,17.9,30.35,North,32767,-999.0,0.0,84,0.00,,,0.00,Wunderground v.1.15,2013-02-21 13:35:00,
2013-02-21 08:45:00,22.3,18.2,30.38,North,32767,-999.0,0.0,84,0.00,,,0.00,Wunderground v.1.15,2013-02-21 13:45:00,
2013-02-21 08:55:00,22.6,18.2,30.36,NNE,31,0.0,0.0,83,0.00,,,0.00,Wunderground v.1.15,2013-02-21 13:55:00,
2013-02-21 09:05:00,22.7,18.3,30.38,NNE,29,0.0,0.0,83,0.00,,,0.00,Wunderground v.1.15,2013-02-21 14:05:00,
2013-02-21 09:15:00,22.9,18.5,30.36,NNE,22,0.0,0.0,83,0.00,,,0.00,Wunderground v.1.15,2013-02-21 14:15:00,
2013-02-21 09:25:00,23.2,18.8,30.38,NE,36,0.0,0.0,83,0.00,,,0.00,Wunderground v.1.15,2013-02-21 14:25:00,
2013-02-21 09:30:00,23.3,18.6,30.38,NE,37,0.0,0.0,82,0.00,,,0.00,Wunderground v.1.15,2013-02-21 14:30:00,
2013-02-21 09:35:00,23.4,19.0,30.38,NNE,28,0.0,0.0,83,0.00,,,0.00,Wunderground v.1.15,2013-02-21 14:35:00,
2013-02-21 09:45:00,23.8,19.1,30.38,NNE,26,0.0,0.0,82,0.00,,,0.00,Wunderground v.1.15,2013-02-21 14:45:00,
2013-02-21 09:55:00,23.6,18.9,30.37,NE,38,0.0,0.0,82,0.00,,,0.00,Wunderground v.1.15,2013-02-21 14:55:00,
2013-02-21 10:05:00,23.5,18.5,30.37,NE,40,0.0,0.0,81,0.00,,,0.00,Wunderground v.1.15,2013-02-21 15:05:00,
2013-02-21 10:15:00,23.7,18.7,30.39,NE,50,0.0,0.0,81,0.00,,,0.00,Wunderground v.1.15,2013-02-21 15:15:00,
2013-02-21 10:25:00,23.6,18.3,30.40,NE,49,0.0,0.0,80,0.00,,,0.00,Wunderground v.1.15,2013-02-21 15:25:00,
2013-02-21 10:35:00,24.3,19.3,30.38,NE,49,0.0,0.0,81,0.00,,,0.00,Wunderground v.1.15,2013-02-21 15:35:00,
2013-02-21 10:45:00,24.3,19.0,30.39,NE,47,0.0,0.0,80,0.00,,,0.00,Wunderground v.1.15,2013-02-21 15:45:00,
2013-02-21 10:55:00,24.4,19.1,30.38,NNE,30,0.0,0.0,80,0.00,,,0.00,Wunderground v.1.15,2013-02-21 15:55:00,
2013-02-21 11:05:00,24.6,19.3,30.38,NE,38,0.0,0.0,80,0.00,,,0.00,Wunderground v.1.15,2013-02-21 16:05:00,
2013-02-21 11:15:00,24.4,18.8,30.38,NE,48,0.0,0.0,79,0.00,,,0.00,Wunderground v.1.15,2013-02-21 16:15:00,
2013-02-21 11:25:00,24.7,19.4,30.38,NE,37,0.0,0.0,80,0.00,,,0.00,Wunderground v.1.15,2013-02-21 16:25:00,
2013-02-21 11:35:00,25.0,19.4,30.38,NE,46,0.0,0.0,79,0.00,,,0.00,Wunderground v.1.15,2013-02-21 16:35:00,
2013-02-21 11:45:00,25.1,19.2,30.38,ENE,76,0.0,0.0,78,0.00,,,0.00,Wunderground v.1.15,2013-02-21 16:45:00,
2013-02-21 11:55:00,25.2,19.3,30.38,NNE,32,0.0,0.0,78,0.00,,,0.00,Wunderground v.1.15,2013-02-21 16:55:00,
2013-02-21 12:05:00,25.3,19.4,30.37,NNE,33,0.0,0.0,78,0.00,,,0.00,Wunderground v.1.15,2013-02-21 17:05:00,
2013-02-21 12:10:00,25.4,19.5,30.37,North,351,0.0,0.0,78,0.00,,,0.00,Wunderground v.1.15,2013-02-21 17:10:00,
2013-02-21 12:20:00,25.0,18.8,30.39,NE,43,0.0,0.0,77,0.00,,,0.00,Wunderground v.1.15,2013-02-21 17:20:00,
2013-02-21 12:30:00,25.2,19.0,30.39,SE,131,0.0,0.0,77,0.00,,,0.00,Wunderground v.1.15,2013-02-21 17:30:00,
2013-02-21 12:35:00,25.3,19.1,30.40,ESE,123,0.0,0.0,77,0.00,,,0.00,Wunderground v.1.15,2013-02-21 17:35:00,
2013-02-21 12:40:00,25.4,19.2,30.40,ESE,121,0.0,0.0,77,0.00,,,0.00,Wunderground v.1.15,2013-02-21 17:40:00,
2013-02-21 12:50:00,25.6,19.1,30.40,ESE,110,0.0,0.0,76,0.00,,,0.00,Wunderground v.1.15,2013-02-21 17:50:00,
2013-02-21 12:55:00,25.9,19.1,30.39,ENE,59,0.0,0.0,75,0.00,,,0.00,Wunderground v.1.15,2013-02-21 17:55:00,
2013-02-21 13:05:00,25.8,19.0,30.38,NE,53,0.0,0.0,75,0.00,,,0.00,Wunderground v.1.15,2013-02-21 18:05:00,
2013-02-21 13:15:00,25.5,18.7,30.37,NE,52,0.0,0.0,75,0.00,,,0.00,Wunderground v.1.15,2013-02-21 18:15:00,
2013-02-21 13:20:00,25.5,19.0,30.38,NE,52,0.0,0.0,76,0.00,,,0.00,Wunderground v.1.15,2013-02-21 18:20:00,
2013-02-21 13:25:00,25.5,19.0,30.36,NE,54,0.0,0.0,76,0.00,,,0.00,Wunderground v.1.15,2013-02-21 18:25:00,
2013-02-21 13:35:00,25.9,19.4,30.36,NE,51,0.0,0.0,76,0.00,,,0.00,Wunderground v.1.15,2013-02-21 18:35:00,
2013-02-21 13:45:00,26.4,19.5,30.35,ENE,57,0.0,0.0,75,0.00,,,0.00,Wunderground v.1.15,2013-02-21 18:45:00,
2013-02-21 13:55:00,26.3,19.5,30.34,NE,53,0.0,0.0,75,0.00,,,0.00,Wunderground v.1.15,2013-02-21 18:55:00,
2013-02-21 14:05:00,26.2,19.4,30.33,NE,55,0.0,0.0,75,0.00,,,0.00,Wunderground v.1.15,2013-02-21 19:05:00,
2013-02-21 14:15:00,26.0,19.5,30.33,North,360,0.0,0.0,76,0.00,,,0.00,Wunderground v.1.15,2013-02-21 19:15:00,
2013-02-21 14:25:00,25.8,19.3,30.35,East,84,0.0,0.0,76,0.00,,,0.00,Wunderground v.1.15,2013-02-21 19:25:00,
2013-02-21 14:30:00,25.8,19.3,30.33,NE,50,0.0,0.0,76,0.00,,,0.00,Wunderground v.1.15,2013-02-21 19:30:00,
2013-02-21 14:35:00,25.8,19.3,30.33,ENE,57,0.0,0.0,76,0.00,,,0.00,Wunderground v.1.15,2013-02-21 19:35:00,
2013-02-21 14:40:00,25.7,19.5,30.34,NE,38,0.0,0.0,77,0.00,,,0.00,Wunderground v.1.15,2013-02-21 19:40:00,
2013-02-21 14:45:00,25.8,19.6,30.31,NE,46,0.0,0.0,77,0.00,,,0.00,Wunderground v.1.15,2013-02-21 19:45:00,
2013-02-21 14:55:00,26.2,20.3,30.30,NNE,30,0.0,0.0,78,0.00,,,0.00,Wunderground v.1.15,2013-02-21 19:55:00,
2013-02-21 15:05:00,25.8,19.6,30.30,NE,34,0.0,0.0,77,0.00,,,0.00,Wunderground v.1.15,2013-02-21 20:05:00,
2013-02-21 15:15:00,25.6,19.1,30.28,ENE,69,0.0,0.0,76,0.00,,,0.00,Wunderground v.1.15,2013-02-21 20:15:00,
2013-02-21 15:20:00,25.5,19.3,30.28,NNE,30,0.0,0.0,77,0.00,,,0.00,Wunderground v.1.15,2013-02-21 20:20:00,
2013-02-21 15:30:00,25.6,19.1,30.28,East,79,0.0,0.0,76,0.00,,,0.00,Wunderground v.1.15,2013-02-21 20:30:00,
2013-02-21 15:40:00,25.4,18.6,30.27,NE,39,0.0,0.0,75,0.00,,,0.00,Wunderground v.1.15,2013-02-21 20:40:00,
2013-02-21 15:45:00,25.4,18.6,30.29,NE,42,0.0,0.0,75,0.00,,,0.00,Wunderground v.1.15,2013-02-21 20:45:00,
2013-02-21 15:55:00,25.2,18.4,30.30,East,79,0.0,0.0,75,0.00,,,0.00,Wunderground v.1.15,2013-02-21 20:55:00,
2013-02-21 16:05:00,24.9,18.4,30.30,NE,46,0.0,0.0,76,0.00,,,0.00,Wunderground v.1.15,2013-02-21 21:05:00,
2013-02-21 16:15:00,25.1,18.3,30.32,NNE,12,0.0,0.0,75,0.00,,,0.00,Wunderground v.1.15,2013-02-21 21:15:00,
2013-02-21 16:25:00,24.8,18.0,30.32,NE,50,0.0,0.0,75,0.00,,,0.00,Wunderground v.1.15,2013-02-21 21:25:00,
2013-02-21 16:35:00,24.7,18.2,30.32,NE,39,0.0,0.0,76,0.00,,,0.00,Wunderground v.1.15,2013-02-21 21:35:00,
2013-02-21 16:45:00,24.5,17.7,30.33,ENE,57,0.0,0.0,75,0.00,,,0.00,Wunderground v.1.15,2013-02-21 21:45:00,
2013-02-21 16:55:00,24.3,17.5,30.33,NNE,25,0.0,0.0,75,0.00,,,0.00,Wunderground v.1.15,2013-02-21 21:55:00,
2013-02-21 17:05:00,24.1,17.0,30.32,NNE,33,0.0,0.0,74,0.00,,,0.00,Wunderground v.1.15,2013-02-21 22:05:00,
2013-02-21 17:15:00,24.0,17.2,30.33,NE,40,0.0,0.0,75,0.00,,,0.00,Wunderground v.1.15,2013-02-21 22:15:00,
2013-02-21 17:25:00,23.9,17.1,30.33,NE,38,0.0,0.0,75,0.00,,,0.00,Wunderground v.1.15,2013-02-21 22:25:00,
2013-02-21 17:35:00,23.6,17.1,30.32,NE,42,0.0,0.0,76,0.00,,,0.00,Wunderground v.1.15,2013-02-21 22:35:00,
2013-02-21 17:40:00,23.5,17.0,30.31,NE,49,0.0,0.0,76,0.00,,,0.00,Wunderground v.1.15,2013-02-21 22:40:00,
2013-02-21 17:50:00,23.3,17.2,30.31,ENE,61,0.0,0.0,77,0.00,,,0.00,Wunderground v.1.15,2013-02-21 22:50:00,
2013-02-21 18:00:00,23.3,17.5,30.31,NE,56,0.0,0.0,78,0.00,,,0.00,Wunderground v.1.15,2013-02-21 23:00:00,
2013-02-21 18:10:00,23.1,17.0,30.32,North,32767,-999.0,0.0,77,0.00,,,0.00,Wunderground v.1.15,2013-02-21 23:10:00,
2013-02-21 18:15:00,23.0,16.9,30.32,North,32767,-999.0,0.0,77,0.00,,,0.00,Wunderground v.1.15,2013-02-21 23:15:00,
2013-02-21 18:25:00,22.7,16.9,30.32,North,32767,-999.0,0.0,78,0.00,,,0.00,Wunderground v.1.15,2013-02-21 23:25:00,
2013-02-21 18:35:00,22.5,16.7,30.31,North,32767,-999.0,0.0,78,0.00,,,0.00,Wunderground v.1.15,2013-02-21 23:35:00,
2013-02-21 18:45:00,22.2,16.4,30.31,North,32767,-999.0,0.0,78,0.00,,,0.00,Wunderground v.1.15,2013-02-21 23:45:00,
2013-02-21 18:55:00,21.9,16.4,30.30,North,32767,-999.0,0.0,79,0.00,,,0.00,Wunderground v.1.15,2013-02-21 23:55:00,
2013-02-21 19:00:00,21.8,16.3,30.29,North,32767,-999.0,0.0,79,0.00,,,0.00,Wunderground v.1.15,2013-02-22 00:00:00,
2013-02-21 19:05:00,21.6,16.1,30.29,North,32767,-999.0,0.0,79,0.00,,,0.00,Wunderground v.1.15,2013-02-22 00:05:00,
2013-02-21 19:15:00,21.5,16.0,30.30,North,32767,-999.0,0.0,79,0.00,,,0.00,Wunderground v.1.15,2013-02-22 00:15:00,
2013-02-21 19:25:00,21.3,15.8,30.30,North,32767,-999.0,0.0,79,0.00,,,0.00,Wunderground v.1.15,2013-02-22 00:25:00,
2013-02-21 19:35:00,21.2,15.7,30.29,North,32767,-999.0,0.0,79,0.00,,,0.00,Wunderground v.1.15,2013-02-22 00:35:00,
2013-02-21 19:45:00,21.1,15.6,30.30,North,32767,-999.0,0.0,79,0.00,,,0.00,Wunderground v.1.15,2013-02-22 00:45:00,
2013-02-21 19:55:00,21.1,15.6,30.29,North,32767,-999.0,0.0,79,0.00,,,0.00,Wunderground v.1.15,2013-02-22 00:55:00,
2013-02-21 20:05:00,21.0,15.2,30.29,North,32767,-999.0,0.0,78,0.00,,,0.00,Wunderground v.1.15,2013-02-22 01:05:00,
2013-02-21 20:15:00,21.0,15.2,30.29,North,32767,-999.0,0.0,78,0.00,,,0.00,Wunderground v.1.15,2013-02-22 01:15:00,
2013-02-21 20:20:00,20.9,15.1,30.29,North,32767,-999.0,0.0,78,0.00,,,0.00,Wunderground v.1.15,2013-02-22 01:20:00,
2013-02-21 20:25:00,20.9,15.4,30.28,North,32767,-999.0,0.0,79,0.00,,,0.00,Wunderground v.1.15,2013-02-22 01:25:00,
2013-02-21 20:30:00,20.9,15.4,30.28,North,32767,-999.0,0.0,79,0.00,,,0.00,Wunderground v.1.15,2013-02-22 01:30:00,
2013-02-21 20:35:00,20.9,15.1,30.28,North,32767,-999.0,0.0,78,0.00,,,0.00,Wunderground v.1.15,2013-02-22 01:35:00,
2013-02-21 20:40:00,20.8,15.0,30.28,North,32767,-999.0,0.0,78,0.00,,,0.00,Wunderground v.1.15,2013-02-22 01:40:00,
2013-02-21 20:50:00,20.8,15.0,30.26,North,32767,-999.0,0.0,78,0.00,,,0.00,Wunderground v.1.15,2013-02-22 01:50:00,
2013-02-21 20:55:00,20.8,15.0,30.26,North,32767,-999.0,0.0,78,0.00,,,0.00,Wunderground v.1.15,2013-02-22 01:55:00,
2013-02-21 21:05:00,20.7,15.2,30.25,North,32767,-999.0,0.0,79,0.00,,,0.00,Wunderground v.1.15,2013-02-22 02:05:00,
2013-02-21 21:15:00,20.8,15.0,30.25,North,32767,-999.0,0.0,78,0.00,,,0.00,Wunderground v.1.15,2013-02-22 02:15:00,
2013-02-21 21:25:00,20.9,15.1,30.25,North,32767,-999.0,0.0,78,0.00,,,0.00,Wunderground v.1.15,2013-02-22 02:25:00,
2013-02-21 21:35:00,21.0,15.2,30.25,North,32767,-999.0,0.0,78,0.00,,,0.00,Wunderground v.1.15,2013-02-22 02:35:00,
2013-02-21 21:45:00,21.0,15.2,30.25,North,32767,-999.0,0.0,78,0.00,,,0.00,Wunderground v.1.15,2013-02-22 02:45:00,
2013-02-21 21:55:00,21.0,15.5,30.24,North,32767,-999.0,0.0,79,0.00,,,0.00,Wunderground v.1.15,2013-02-22 02:55:00,
2013-02-21 22:00:00,21.0,15.5,30.24,North,32767,-999.0,0.0,79,0.00,,,0.00,Wunderground v.1.15,2013-02-22 03:00:00,
2013-02-21 22:05:00,20.9,15.4,30.24,North,32767,-999.0,0.0,79,0.00,,,0.00,Wunderground v.1.15,2013-02-22 03:05:00,
2013-02-21 22:15:00,20.9,15.4,30.24,North,32767,-999.0,0.0,79,0.00,,,0.00,Wunderground v.1.15,2013-02-22 03:15:00,
2013-02-21 22:25:00,20.9,15.7,30.23,North,32767,-999.0,0.0,80,0.00,,,0.00,Wunderground v.1.15,2013-02-22 03:25:00,
2013-02-21 22:30:00,20.8,15.6,30.23,North,32767,-999.0,0.0,80,0.00,,,0.00,Wunderground v.1.15,2013-02-22 03:30:00,
2013-02-21 22:40:00,20.9,15.7,30.22,North,32767,-999.0,0.0,80,0.00,,,0.00,Wunderground v.1.15,2013-02-22 03:40:00,
2013-02-21 22:50:00,20.8,15.9,30.21,North,32767,-999.0,0.0,81,0.00,,,0.00,Wunderground v.1.15,2013-02-22 03:50:00,
2013-02-21 22:55:00,20.8,15.9,30.20,North,32767,-999.0,0.0,81,0.00,,,0.00,Wunderground v.1.15,2013-02-22 03:55:00,
2013-02-21 23:05:00,20.7,16.1,30.19,North,32767,-999.0,0.0,82,0.00,,,0.00,Wunderground v.1.15,2013-02-22 04:05:00,
2013-02-21 23:15:00,20.5,15.9,30.18,North,32767,-999.0,0.0,82,0.00,,,0.00,Wunderground v.1.15,2013-02-22 04:15:00,
2013-02-21 23:25:00,20.5,16.2,30.18,North,32767,-999.0,0.0,83,0.00,,,0.00,Wunderground v.1.15,2013-02-22 04:25:00,
2013-02-21 23:35:00,20.6,16.3,30.18,North,32767,-999.0,0.0,83,0.00,,,0.00,Wunderground v.1.15,2013-02-22 04:35:00,
2013-02-21 23:45:00,20.6,16.3,30.17,North,32767,-999.0,0.0,83,0.00,,,0.00,Wunderground v.1.15,2013-02-22 04:45:00,
2013-02-21 23:55:00,20.9,16.5,30.18,North,32767,-999.0,0.0,83,0.00,,,0.00,Wunderground v.1.15,2013-02-22 04:55:00,